Retour au catalogue

STARLINK-11122

ActifCommunicationsVLEO
NORAD 60040·PAYLOAD·🇺🇸 United States

Lancé Jun 8, 2024 depuis Vandenberg Space Force Base

Loading…

Prochains Passages (prochaines 24 heures)

TLE

FraisSource: CelesTrak SupGP

Époque: Sep 14, 2026, 20:50 UTC

1 60040C 24112C   26257.86854167  .00055963  00000+0  46106-3 0  2571
2 60040  53.1571  53.9029 0001139  82.0662 175.0436 15.69677522    17

Suivez STARLINK-11122 en temps réel avec AllMySat

Download on the App Store